[[{"header":{"parameterUnit":"m.s-1","parameterCategory":1,"la1":30.2991,"la2":30.254,"lo1":-89.0895,"lo2":-89.0444,"dy":0.0017,"dx":0.0017,"nx":28,"ny":28,"refTime":"2025-03-11T21:00:00:Z","depth":0,"parameterNumber":2,"parameterNumberName":"U-component_of_WINDS"},"data":[0,0,0,0,0,0,0,0,0,0,0,0,0,0,0,0,0,0,0,0,0,0,0,0,0,0,0,0,0,0,0,0,0,0,0,0,0,0,0,0,0,0,0,0,0,0,0,0,0,0,0,0,0,0,0,0,0,0,2.2947,2.2949,0,2.3105,2.3106,2.3108,2.3106,2.3104,2.3101,2.3099,2.3263,2.3269,2.3276,0,0,0,0,0,0,0,0,0,0,0,0,0,2.2647,2.2653,2.2947,2.2949,2.2951,2.3104,2.3106,2.3109,2.3106,2.3103,2.3101,2.3099,2.3261,2.3269,2.3276,0,0,0,0,0,0,0,0,0,0,0,0,0,2.2788,2.2655,2.2947,2.2968,2.2972,2.3104,2.3107,2.3109,2.3107,2.3103,2.31,2.3097,2.3259,2.3268,2.3277,2.3399,0,0,2.3306,2.331,0,0,0,0,0,0,0,0,2.278,2.2799,2.2963,2.2967,2.2971,2.3082,2.3061,2.3207,2.3107,2.3056,2.3099,2.3096,2.3206,2.3219,2.3256,2.3407,2.3414,2.3307,2.3313,2.3317,2.332,0,0,0,0,0,0,0,2.2771,2.2793,2.301,2.2966,2.2971,2.2971,2.2987,2.3088,2.3147,2.306,2.306,2.3078,2.3207,2.3247,2.326,2.3416,2.3307,2.3315,2.3321,2.3325,2.3675,2.3679,0,0,0,0,0,0,2.2756,2.2785,2.3005,2.3014,2.2866,2.2979,2.2997,2.305,2.3145,2.3157,2.3081,2.3078,2.3232,2.3249,2.3266,2.3414,2.3317,2.3326,2.3331,2.3672,2.3676,2.368,0,0,0,0,0,0,2.275,2.2776,2.2998,2.29,2.2928,2.2987,2.3046,2.3055,2.3094,2.3161,2.3172,2.311,2.323,2.3252,2.3366,2.342,2.333,2.3339,2.3668,2.3673,2.3678,2.3713,0,0,0,0,0,0,2.2741,2.2773,2.282,2.2901,2.2933,2.3095,2.305,2.306,2.311,2.3107,2.3192,2.3203,2.323,2.3352,2.3375,2.3431,2.3346,2.3663,2.367,2.3676,2.3707,2.3719,2.3729,0,0,0,0,0,2.273,2.2824,2.2822,2.2849,2.2992,2.3098,2.3117,2.3145,2.3114,2.3162,2.3205,2.32,2.341,2.3363,2.339,2.345,2.366,2.3668,2.3676,2.3702,2.3716,2.3728,0,0,0,0,0,0,2.2749,2.2835,2.2834,2.2956,2.302,2.3098,2.3158,2.3159,2.3233,2.3228,2.326,2.328,2.3393,2.3433,2.3379,2.3573,2.3531,2.3545,2.3542,2.3556,2.3567,2.3555,2.3354,0,0,0,0,0,2.2767,2.2845,2.2916,2.3018,2.3049,2.3098,2.3146,2.3162,2.3229,2.3256,2.3308,2.3375,2.3456,2.3508,2.3587,2.3713,2.3732,2.3767,2.3778,2.3787,2.3798,2.3868,2.3884,2.3707,2.3707,2.3707,0,0,2.2805,2.2862,2.291,2.3023,2.3074,2.3155,2.3121,2.3208,2.3269,2.327,2.338,2.342,2.3497,2.3617,2.3673,2.3654,2.3851,2.3797,2.3803,2.381,2.3878,2.3895,2.391,2.3712,2.3711,2.3711,0,0,2.2917,2.2968,2.3057,2.3109,2.3186,2.3218,2.324,2.3318,2.3344,2.3455,2.3458,2.3531,2.367,2.3724,2.377,2.3902,2.39,2.3927,2.3983,2.405,2.4064,2.4077,2.4124,2.414,2.3938,2.3938,2.3938,0,2.2955,2.3076,2.3103,2.319,2.324,2.3244,2.3335,2.3385,2.3485,2.3519,2.3496,2.3671,2.3723,2.3855,2.3887,2.3925,2.3951,2.3917,2.406,2.4073,2.4085,2.413,2.4147,2.3941,2.394,2.394,2.394,0,2.3119,2.3203,2.3266,2.3361,2.3418,2.3507,2.3548,2.3603,2.3614,2.3649,2.3761,2.3824,2.3915,2.3948,2.396,2.4083,2.4069,2.4053,2.4012,2.4104,2.4147,2.4164,2.3945,2.3944,2.3943,2.3942,0,0,2.3245,2.3354,2.3377,2.342,2.3506,2.3572,2.3661,2.3749,2.3795,2.3864,2.394,2.4057,2.4043,2.4095,2.4114,2.4173,2.4273,2.415,2.4152,2.417,2.4412,2.4423,2.4442,2.4273,2.4276,2.4279,2.4405,0,2.3365,2.3522,2.3549,2.3687,2.3765,2.3771,2.3849,2.3911,2.3945,2.4017,2.4057,2.4139,2.4114,2.4145,2.4205,2.4248,2.4322,2.424,2.4344,2.4347,2.4324,2.4465,2.4476,2.4593,2.4422,2.4425,2.4427,0,2.3525,2.3597,2.3742,2.3818,2.3851,2.3921,2.4003,2.4072,2.4143,2.4164,2.4222,2.4234,2.4327,2.4283,2.4412,2.4356,2.44,2.4428,2.4434,2.4444,2.4392,2.4478,2.4631,2.4648,2.4454,2.4452,2.445,0,2.3601,2.3735,2.3839,2.3876,2.3967,2.4015,2.4056,2.4123,2.4174,2.4247,2.428,2.4364,2.4409,2.4474,2.4508,2.4472,2.4635,2.4593,2.4656,2.4655,2.4689,2.4687,2.485,2.4719,2.4719,2.4719,2.4718,0,2.3732,2.382,2.3874,2.3938,2.4038,2.4069,2.4168,2.4207,2.4267,2.4339,2.435,2.4418,2.4459,2.4533,2.4561,2.4664,2.4685,2.4705,2.4711,2.4704,2.4701,2.4733,2.4725,2.4723,2.4722,2.4721,2.4721,0,2.3833,2.3873,2.3987,2.4064,2.4085,2.4155,2.4221,2.4284,2.4319,2.441,2.4434,2.4489,2.4577,2.4617,2.4727,2.4745,2.4862,2.4863,2.4838,2.484,2.49,2.4894,2.5089,2.5117,2.4968,2.4969,2.497,0,2.3913,2.3981,2.4065,2.4114,2.4155,2.4234,2.4286,2.432,2.4374,2.4459,2.4512,2.46,2.4672,2.4812,2.4862,2.4946,2.4949,2.5012,2.4961,2.4952,2.4949,2.4944,2.4951,2.502,2.5022,2.5023,2.5024,0,2.4051,2.4067,2.4141,2.4223,2.4284,2.435,2.4415,2.4454,2.4499,2.4559,2.4648,2.4704,2.4815,2.4902,2.4989,2.5032,2.5036,2.504,2.5058,2.5051,2.5033,2.5043,2.4862,2.5035,2.5034,2.5033,2.5032,2.5032,2.4144,2.4204,2.4273,2.4355,2.4407,2.4467,2.453,2.4573,2.4647,2.4739,2.4755,2.4851,2.492,2.5037,2.5083,2.5158,2.5143,2.5171,2.5178,2.5184,2.5187,2.5022,2.5174,2.5174,2.5174,2.5173,2.5173,0,2.4281,2.4325,2.4401,2.449,2.4555,2.4553,2.4624,2.4679,2.4762,2.4826,2.4897,2.5,2.5085,2.5142,2.5228,2.5277,2.5281,2.5299,2.5295,2.5305,2.5195,2.517,2.5294,2.5294,2.5294,2.5294,2.5294,2.5294,2.436,2.4462,2.4487,2.4616,2.466,2.4752,2.4793,2.4849,2.49,2.5014,2.5085,2.5121,2.5183,2.5273,2.5351,2.5366,2.5397,2.5415,2.5429,2.5325,2.5313,2.5301,2.5277,2.5422,2.5422,2.5533,2.5534,2.5535]},{"header":{"parameterUnit":"m.s-1","parameterCategory":1,"la1":30.2991,"la2":30.254,"lo1":-89.0895,"lo2":-89.0444,"dy":0.0017,"dx":0.0017,"nx":28,"ny":28,"refTime":"2025-03-11T21:00:00:Z","depth":0,"parameterNumber":3,"parameterNumberName":"V-component_of_WINDS"},"data":[0,0,0,0,0,0,0,0,0,0,0,0,0,0,0,0,0,0,0,0,0,0,0,0,0,0,0,0,0,0,0,0,0,0,0,0,0,0,0,0,0,0,0,0,0,0,0,0,0,0,0,0,0,0,0,0,0,0,1.5973,1.5973,0,1.6014,1.6014,1.6014,1.5985,1.5984,1.5983,1.5982,1.6021,1.6023,1.6025,0,0,0,0,0,0,0,0,0,0,0,0,0,1.5866,1.5868,1.5973,1.5973,1.5974,1.6014,1.6014,1.6015,1.5986,1.5984,1.5983,1.5981,1.602,1.6022,1.6025,0,0,0,0,0,0,0,0,0,0,0,0,0,1.591,1.5869,1.5973,1.5964,1.5964,1.6013,1.6014,1.6015,1.5986,1.5984,1.5982,1.598,1.6019,1.6022,1.6026,1.6085,0,0,1.6036,1.6037,0,0,0,0,0,0,0,0,1.5908,1.5914,1.5965,1.5965,1.5965,1.5992,1.5991,1.6038,1.5986,1.5977,1.5982,1.5979,1.6013,1.6016,1.6028,1.6087,1.6088,1.6036,1.6038,1.604,1.6041,0,0,0,0,0,0,0,1.5905,1.5912,1.5989,1.5966,1.5965,1.5957,1.5961,1.6,1.6005,1.5978,1.5976,1.5981,1.6012,1.6025,1.6029,1.6089,1.6036,1.6039,1.6041,1.6042,1.6197,1.6199,0,0,0,0,0,0,1.5903,1.591,1.5987,1.599,1.5931,1.5961,1.5965,1.5985,1.6005,1.6006,1.5983,1.598,1.602,1.6025,1.603,1.6101,1.604,1.6043,1.6045,1.6195,1.6198,1.62,0,0,0,0,0,0,1.5901,1.591,1.5986,1.5949,1.5958,1.5965,1.5987,1.5987,1.6,1.6009,1.6009,1.5996,1.6019,1.6025,1.6072,1.6102,1.6044,1.6047,1.6193,1.6196,1.6199,1.6243,0,0,0,0,0,0,1.5898,1.5909,1.5933,1.595,1.596,1.6028,1.5989,1.5989,1.6006,1.6003,1.602,1.6021,1.6018,1.6067,1.6075,1.6105,1.605,1.619,1.6194,1.6198,1.6239,1.6247,1.6254,0,0,0,0,0,1.5894,1.5943,1.5934,1.5944,1.599,1.603,1.6035,1.6031,1.6009,1.6032,1.6037,1.6021,1.6097,1.6072,1.6081,1.6113,1.6188,1.6193,1.6198,1.6235,1.6245,1.6254,0,0,0,0,0,0,1.5929,1.5945,1.5936,1.5992,1.601,1.6025,1.6054,1.6042,1.6066,1.6061,1.6054,1.6058,1.6107,1.6114,1.6085,1.6171,1.6139,1.6146,1.6164,1.6174,1.6182,1.6179,1.6053,0,0,0,0,0,1.5943,1.5975,1.5987,1.6035,1.6045,1.6048,1.6065,1.606,1.6078,1.6085,1.6093,1.611,1.6138,1.6156,1.6182,1.6239,1.6242,1.6265,1.6273,1.6279,1.6286,1.6316,1.6326,1.6216,1.6216,1.6215,0,0,1.5973,1.5986,1.6006,1.6043,1.6056,1.6088,1.6054,1.609,1.6113,1.609,1.6134,1.6141,1.6159,1.6211,1.6234,1.6219,1.6317,1.6286,1.6291,1.6293,1.6322,1.6332,1.6342,1.6219,1.6218,1.6218,0,0,1.6043,1.6056,1.6099,1.6112,1.6133,1.6134,1.6144,1.6161,1.6165,1.621,1.6193,1.6219,1.6267,1.6281,1.6294,1.6369,1.6354,1.6377,1.6418,1.6448,1.6457,1.6464,1.6491,1.6501,1.6383,1.6383,1.6383,0,1.6077,1.6126,1.6121,1.6158,1.6174,1.6155,1.6197,1.621,1.6238,1.6249,1.6231,1.629,1.6301,1.6356,1.6374,1.6385,1.6396,1.6376,1.6456,1.6464,1.6471,1.6496,1.6506,1.6386,1.6386,1.6385,1.6385,0,1.6167,1.6201,1.6232,1.6261,1.628,1.6319,1.6319,1.6339,1.6332,1.6335,1.638,1.6392,1.642,1.6433,1.6426,1.6486,1.6476,1.6457,1.6425,1.6484,1.6508,1.6518,1.639,1.6389,1.6388,1.6387,0,0,1.6262,1.6287,1.6298,1.6311,1.6331,1.6357,1.6394,1.6423,1.644,1.6459,1.649,1.653,1.6513,1.6528,1.6522,1.6548,1.6607,1.6526,1.6526,1.6541,1.6674,1.6689,1.67,1.6597,1.6599,1.66,1.6673,0,1.6334,1.6401,1.6397,1.646,1.6491,1.6472,1.6505,1.652,1.6524,1.655,1.6552,1.6582,1.6557,1.6565,1.659,1.6595,1.6633,1.6589,1.6625,1.6627,1.6622,1.6712,1.6728,1.6796,1.6682,1.6683,1.6684,0,1.6428,1.6451,1.6517,1.6533,1.6546,1.6576,1.6601,1.6626,1.6642,1.6643,1.666,1.6649,1.6686,1.6652,1.6702,1.6672,1.6686,1.669,1.6693,1.6697,1.666,1.6719,1.6817,1.6828,1.6699,1.6698,1.6697,0,1.6491,1.6539,1.6584,1.6595,1.6615,1.6636,1.6645,1.666,1.6677,1.6698,1.6709,1.6734,1.6748,1.6767,1.6763,1.6739,1.6814,1.678,1.6815,1.6815,1.6832,1.6832,1.6935,1.684,1.684,1.684,1.684,0,1.6573,1.6614,1.6613,1.6641,1.6686,1.668,1.6725,1.6731,1.6744,1.6772,1.6757,1.6783,1.6777,1.6803,1.6799,1.6841,1.6847,1.6848,1.6847,1.685,1.685,1.686,1.6855,1.6843,1.6842,1.6842,1.6841,0,1.6651,1.6653,1.6701,1.6716,1.672,1.6753,1.6764,1.679,1.6792,1.6828,1.6836,1.6838,1.6868,1.6866,1.6899,1.6897,1.6949,1.6941,1.6944,1.6942,1.6977,1.6974,1.7091,1.7106,1.7002,1.7003,1.7003,0,1.6704,1.6735,1.6753,1.6771,1.6782,1.6811,1.6829,1.6824,1.6842,1.6863,1.6886,1.6915,1.6937,1.6985,1.6989,1.7014,1.7008,1.7047,1.7011,1.7013,1.7009,1.7007,1.701,1.7054,1.7055,1.7056,1.7057,0,1.6797,1.6796,1.6822,1.6849,1.687,1.6891,1.6909,1.6924,1.6921,1.6942,1.6973,1.699,1.7024,1.7052,1.7076,1.7083,1.707,1.7068,1.7078,1.7081,1.7082,1.7082,1.6963,1.7066,1.7065,1.7064,1.7064,1.7063,1.6864,1.6891,1.6908,1.6938,1.6951,1.6969,1.6994,1.6999,1.7025,1.7053,1.7048,1.7082,1.7096,1.7127,1.7137,1.7163,1.7148,1.7162,1.7166,1.7169,1.7174,1.7077,1.7167,1.7167,1.7166,1.7166,1.7166,0,1.6956,1.6966,1.6994,1.7021,1.7044,1.7029,1.7049,1.7069,1.71,1.7115,1.7138,1.7172,1.7199,1.7205,1.7231,1.725,1.7244,1.7257,1.7256,1.7258,1.7185,1.7174,1.7261,1.7261,1.7261,1.7261,1.7261,1.7261,1.7007,1.7052,1.7053,1.7104,1.7113,1.7148,1.716,1.7176,1.7188,1.7228,1.7251,1.7255,1.7266,1.7292,1.7316,1.7317,1.7327,1.7342,1.7341,1.7273,1.7263,1.7254,1.7244,1.7345,1.7345,1.7412,1.7413,1.7413]}]]